TimePDT,TemperatureF,Dew PointF,Humidity,Sea Level PressureIn,VisibilityMPH,Wind Direction,Wind SpeedMPH,Gust SpeedMPH,PrecipitationIn,Events,Conditions,WindDirDegrees,DateUTC
12:15 AM,55.4,48.2,77,30.36,10.0,Calm,Calm,-,N/A,,Clear,0,2013-07-03 07:15:00
12:35 AM,53.6,48.2,82,30.37,10.0,SE,3.5,-,N/A,,Clear,140,2013-07-03 07:35:00
12:55 AM,53.6,48.2,82,30.36,10.0,SSE,3.5,-,N/A,,Clear,150,2013-07-03 07:55:00
1:15 AM,50.0,46.4,87,30.36,10.0,SSE,3.5,-,N/A,,Clear,150,2013-07-03 08:15:00
1:35 AM,53.6,46.4,77,30.35,10.0,Calm,Calm,-,N/A,,Clear,0,2013-07-03 08:35:00
1:55 AM,51.8,48.2,88,30.35,10.0,Calm,Calm,-,N/A,,Clear,0,2013-07-03 08:55:00
2:15 AM,50.0,46.4,87,30.35,10.0,Calm,Calm,-,N/A,,Clear,0,2013-07-03 09:15:00
2:35 AM,53.6,48.2,82,30.35,10.0,South,3.5,-,N/A,,Clear,190,2013-07-03 09:35:00
2:55 AM,50.0,48.2,94,30.34,10.0,Calm,Calm,-,N/A,,Clear,0,2013-07-03 09:55:00
3:15 AM,51.8,48.2,88,30.34,10.0,Calm,Calm,-,N/A,,Clear,0,2013-07-03 10:15:00
3:35 AM,50.0,48.2,94,30.34,10.0,Calm,Calm,-,N/A,,Clear,0,2013-07-03 10:35:00
3:55 AM,48.2,46.4,93,30.34,10.0,Calm,Calm,-,N/A,,Clear,0,2013-07-03 10:55:00
4:15 AM,48.2,46.4,93,30.34,10.0,South,3.5,-,N/A,,Clear,170,2013-07-03 11:15:00
4:35 AM,48.2,46.4,93,30.34,10.0,Calm,Calm,-,N/A,,Clear,0,2013-07-03 11:35:00
4:55 AM,50.0,48.2,94,30.34,10.0,Calm,Calm,-,N/A,,Clear,0,2013-07-03 11:55:00
5:15 AM,50.0,46.4,87,30.33,10.0,Calm,Calm,-,N/A,,Clear,0,2013-07-03 12:15:00
5:35 AM,48.2,46.4,93,30.34,10.0,Calm,Calm,-,N/A,,Clear,0,2013-07-03 12:35:00
5:55 AM,46.4,44.6,93,30.34,10.0,Calm,Calm,-,N/A,,Clear,0,2013-07-03 12:55:00
6:15 AM,44.6,44.6,100,30.34,5.0,Calm,Calm,-,N/A,,Clear,0,2013-07-03 13:15:00
6:35 AM,48.2,46.4,93,30.34,10.0,Calm,Calm,-,N/A,,Clear,0,2013-07-03 13:35:00
6:45 AM,50.0,48.2,94,30.35,10.0,Calm,Calm,-,N/A,,Clear,0,2013-07-03 13:45:00
8:45 AM,64.4,50.0,59,30.33,10.0,North,3.5,-,N/A,,Clear,350,2013-07-03 15:45:00
9:45 AM,71.6,50.0,46,30.31,10.0,Calm,Calm,-,N/A,,Clear,0,2013-07-03 16:45:00
10:45 AM,77.0,50.0,39,30.29,10.0,NNE,5.8,-,N/A,,Clear,30,2013-07-03 17:45:00
11:45 AM,82.4,50.0,32,30.27,10.0,NW,3.5,-,N/A,,Clear,310,2013-07-03 18:45:00
12:55 PM,86.0,46.4,25,30.25,10.0,NE,8.1,-,N/A,,Partly Cloudy,40,2013-07-03 19:55:00
1:55 PM,87.8,46.4,24,30.24,10.0,NE,9.2,-,N/A,,Scattered Clouds,50,2013-07-03 20:55:00
2:55 PM,89.6,48.2,24,30.21,10.0,North,3.5,17.3,N/A,,Mostly Cloudy,10,2013-07-03 21:55:00
4:55 PM,86.0,44.6,23,30.18,10.0,NW,10.4,-,N/A,,Mostly Cloudy,320,2013-07-03 23:55:00
5:50 PM,77.0,50.0,39,30.19,10.0,SSW,3.5,-,N/A,,Mostly Cloudy,210,2013-07-04 00:50:00
5:55 PM,77.0,50.0,39,30.19,10.0,SW,3.5,-,N/A,,Partly Cloudy,220,2013-07-04 00:55:00
6:15 PM,77.0,51.8,41,30.19,10.0,SSW,3.5,-,N/A,Thunderstorm,Thunderstorm,210,2013-07-04 01:15:00
6:35 PM,77.0,51.8,41,30.19,10.0,SSW,4.6,-,N/A,,Clear,210,2013-07-04 01:35:00
6:55 PM,77.0,50.0,39,30.18,10.0,Calm,Calm,-,N/A,,Clear,0,2013-07-04 01:55:00
7:15 PM,77.0,46.4,34,30.19,10.0,WSW,8.1,-,N/A,Thunderstorm,Thunderstorm,250,2013-07-04 02:15:00
7:35 PM,77.0,46.4,34,30.19,10.0,West,9.2,-,N/A,,Clear,270,2013-07-04 02:35:00
7:55 PM,75.2,53.6,47,30.20,10.0,NNE,8.1,-,N/A,Thunderstorm,Clear,30,2013-07-04 02:55:00
8:15 PM,73.4,53.6,50,30.20,10.0,Calm,Calm,-,N/A,,Clear,0,2013-07-04 03:15:00
8:35 PM,73.4,55.4,53,30.22,10.0,North,12.7,17.3,N/A,Thunderstorm,Scattered Clouds,360,2013-07-04 03:35:00
8:55 PM,71.6,53.6,53,30.23,10.0,NNE,8.1,-,N/A,,Scattered Clouds,20,2013-07-04 03:55:00
9:15 PM,71.6,50.0,46,30.24,10.0,Calm,Calm,-,N/A,,Clear,0,2013-07-04 04:15:00
9:35 PM,71.6,50.0,46,30.24,10.0,East,3.5,-,N/A,,Clear,100,2013-07-04 04:35:00
9:55 PM,66.2,50.0,56,30.23,10.0,Calm,Calm,-,N/A,,Clear,0,2013-07-04 04:55:00
10:15 PM,66.2,50.0,56,30.23,10.0,West,3.5,-,N/A,,Clear,260,2013-07-04 05:15:00
10:35 PM,62.6,50.0,63,30.23,10.0,Calm,Calm,-,N/A,,Clear,0,2013-07-04 05:35:00
10:55 PM,64.4,50.0,59,30.24,10.0,NE,4.6,-,N/A,,Clear,40,2013-07-04 05:55:00
11:15 PM,62.6,50.0,63,30.24,10.0,Calm,Calm,-,N/A,,Clear,0,2013-07-04 06:15:00
11:35 PM,59.0,48.2,67,30.25,10.0,South,4.6,-,N/A,,Clear,190,2013-07-04 06:35:00
11:55 PM,59.0,50.0,72,30.24,10.0,Calm,Calm,-,N/A,,Clear,0,2013-07-04 06:55:00